Location: Haut Kerinec
(48.0623°N, 4.4081°W)
Time: 22:34:49
(UTC+00:00)

STARLINK-1254 - Pass Details

Date: 07 October 2020
Orbit: 548 x 551 km, 53.0° (Epoch: 26 October)

Event Time Altitude Azimuth Distance (km) Brightness Sun altitude
Rises 19:20:00 0° 204° (SSW) 2,701 7.3 -16.8°
Reaches altitude 10° 19:22:30 10° 191° (S) 1,813 6.3 -17.2°
Enters shadow 19:25:03 23° 155° (SSE) 1,186 5.0 -17.7°
